Weather History for GMAD - November, 2012

Change the Weather History Date:

Saturday, November 17, 2012

  Actual Average Record
Temperature  
Mean Temperature 58 °F -  
Max Temperature 68 °F - - ()
Min Temperature 49 °F - - ()
Degree Days  
Heating Degree Days 6    
Growing Degree Days 8 (Base 50)    
Moisture  
Dew Point 57 °F    
Average Humidity 86    
Maximum Humidity 94    
Minimum Humidity 73    
Precipitation  
Precipitation 1.06 in - - ()
Sea Level Pressure  
Sea Level Pressure 29.93 in    
Wind  
Wind Speed 4 mph ()    
Max Wind Speed 15 mph    
Max Gust Speed -    
Visibility 4.9 miles    
Events Rain    
T = Trace of Precipitation, MM = Missing Value Source: Averaged Metar Reports

Daily Weather History Graph

Daily Weather History Graph

Search for Another Location

Airport or City:

Trip Planner

Search our weather history database for the weather conditions in past years. The results will help you decide how hot, cold, wet, or windy it might be!

Date:

Astronomy

Nov. 17, 2012 Rise Set
Actual Time 7:05 AM WET 5:39 PM WET
Civil Twilight 6:39 AM WET 6:05 PM WET
Nautical Twilight 6:10 AM WET 6:34 PM WET
Astronomical Twilight 5:41 AM WET 7:03 PM WET
Moon 10:38 AM WET (11/17) 9:33 PM WET (11/17)
Length of Visible Light 11h 25m
Length of Day
10h 34m
Waxing Crescent, 18% of the Moon is Illuminated
Nov 17
Waxing Crescent
Nov 20
First Quarter
Nov 28
Full
Dec 6
Last Quarter
Dec 13
New

Hourly Weather History & Observations

Time (WET) Temp. Dew Point Humidity Pressure Visibility Wind Dir Wind Speed Gust Speed Precip Events Conditions
12:00 AM 58 °F 53 °F 80% 29.99 in 6 mi ENE 3.5 mph - -   Partly Cloudy
12:00 AM 57.2 °F 53.6 °F 88% 29.98 in - ENE 3.5 mph - N/A   Clear
1:00 AM 59.0 °F 53.6 °F 82% 29.95 in 6.2 mi ENE 1.2 mph - N/A   Unknown
2:00 AM 59.0 °F 53.6 °F 82% 29.95 in 6.2 mi NE 3.5 mph - N/A   Unknown
3:00 AM 58 °F 54 °F 82% 29.96 in 6 mi NE 1.2 mph - -   Scattered Clouds
3:00 AM 59.0 °F 53.6 °F 82% 29.95 in - NE 1.2 mph - N/A   Clear
4:00 AM 57.2 °F 53.6 °F 88% 29.92 in 6.2 mi East 3.5 mph - N/A   Scattered Clouds
5:00 AM 57.2 °F 53.6 °F 88% 29.92 in 6.2 mi East 3.5 mph - N/A   Unknown
6:00 AM 58 °F 54 °F 84% 29.92 in 6 mi NE 4.6 mph - -   Partly Cloudy
6:00 AM 59.0 °F 55.4 °F 88% 29.92 in 6.2 mi NE 4.6 mph - N/A   Scattered Clouds
7:00 AM 59.0 °F 55.4 °F 88% 29.92 in 6.2 mi East 4.6 mph - N/A   Mostly Cloudy
8:00 AM 59.0 °F 55.4 °F 88% 29.89 in 5.0 mi ENE 4.6 mph - N/A Rain Rain
9:00 AM 58 °F 56 °F 91% 29.95 in 3 mi NW 2.3 mph - -   Mostly Cloudy
9:00 AM 59.0 °F 55.4 °F 88% 29.95 in 3.1 mi Variable 2.3 mph - N/A Rain Rain
10:00 AM 60.8 °F 59.0 °F 94% 29.95 in 3.1 mi ENE 5.8 mph - N/A   Mostly Cloudy
11:00 AM 60.8 °F 59.0 °F 94% 29.95 in 3.1 mi East 4.6 mph - N/A   Mostly Cloudy
11:15 AM 60.8 °F 59.0 °F 94% 29.95 in 1.9 mi NE 3.5 mph - N/A Rain Light Rain
12:00 PM 62 °F 60 °F 90% 29.95 in 3 mi NNE 3.5 mph - - Rain Light Rain
12:00 PM 60.8 °F 59.0 °F 94% 29.95 in 3.1 mi NE 3.5 mph - N/A Rain Light Rain
1:00 PM 64.4 °F 62.6 °F 94% 29.92 in 3.1 mi Variable 2.3 mph - N/A   Mostly Cloudy
2:00 PM 68.0 °F 60.8 °F 78% 29.89 in 6.2 mi SW 4.6 mph - N/A   Scattered Clouds
3:00 PM 68.0 °F 60.8 °F 78% 29.89 in 6.2 mi West 12.7 mph - N/A   Scattered Clouds
4:00 PM 66.2 °F 57.2 °F 73% 29.89 in 6.2 mi West 15.0 mph - N/A   Scattered Clouds
5:00 PM 64.4 °F 59.0 °F 83% 29.89 in 6.2 mi WSW 10.4 mph - N/A   Scattered Clouds
6:00 PM 64 °F 59 °F 78% 29.91 in 5 mi WSW 6.9 mph - -   Mostly Cloudy
6:00 PM 64.4 °F 59.0 °F 83% 29.89 in 5.0 mi WSW 6.9 mph - N/A   Scattered Clouds
7:00 PM 62.6 °F 59.0 °F 88% 29.92 in 5.0 mi WSW 8.1 mph - N/A   Scattered Clouds
8:00 PM 62.6 °F 59.0 °F 88% 29.92 in 5.0 mi SW 5.8 mph - N/A   Scattered Clouds
9:00 PM 61 °F 58 °F 87% 29.94 in 5 mi WSW 8.1 mph - -   Partly Cloudy
9:00 PM 60.8 °F 59.0 °F 94% 29.92 in 5.0 mi WSW 8.1 mph - N/A   Scattered Clouds